Location: Gerlach
(40.6516°N, 119.3568°W)
Time: 04:03:31
(UTC-07:00)

Explorer 11/Cluster Stage 4 - Pass Details

Date: 01 February 2023
Orbit: 466 x 1241 km, 28.8° (Epoch: 02 April)

Event Time Altitude Azimuth Distance (km) Brightness Sun altitude
Exits shadow 05:43:23 - 228° (SW) 3,795 9.7 -16.2°
Reaches altitude 10° 05:45:39 10° 220° (SW) 3,176 9.4 -15.7°
Maximum altitude 05:52:13 28° 166° (SSE) 2,141 9.0 -14.5°
Drops below altitude 10° 05:58:40 10° 111° (ESE) 3,116 11.0 -13.3°
Sets 06:01:52 0° 101° (E) 4,004 12.3 -12.7°
